RH
93 94 95 92 82 78 76 76 80 78 77 79 82 85 86 88 83 27 18 26 35 65 58 15 11 9 10 11 9 10 16 16 12 10 16 13 12 12 13 14 13 13 16 16 14
94 95 92 84 81 75 72 74 77 77 78 80 83 86 88 90 51 26 44 61 61 65 23 15 12 10 13 12 11 12 15 14 13 12 12 12 13 12 13 14 14 14 15 14 13
94 92 86 81 76 73 73 75 76 76 78 78 82 86 88 75 30 27 66 60 61 54 24 15 14 16 18 13 12 13 16 14 13 17 12 10 12 10 12 12 11 15 15 14 13
93 89 84 77 75 74 76 77 76 77 78 77 80 84 85 49 24 27 59 57 62 38 21 16 17 19 17 16 12 15 12 10 10 13 12 11 10 11 11 11 10 12 13 12 16
91 89 83 78 77 77 78 77 78 79 77 77 79 82 44 24 22 34 58 50 28 21 18 15 16 16 17 12 11 13 11 9 11 11 14 12 13 14 12 9 11 11 12 17 24
92 90 86 80 79 79 80 78 80 80 77 78 76 82 44 34 13 14 17 14 16 16 16 14 14 12 14 13 11 10 15 11 13 13 13 14 13 12 11 11 11 12 14 26 30
90 86 80 74 74 80 80 79 82 83 78 76 75 53 36 28 13 11 17 14 12 13 17 14 13 17 13 12 12 14 19 15 13 12 12 14 16 13 10 12 13 12 17 30 32
92 87 80 76 80 80 78 81 84 84 82 78 75 52 37 14 12 13 12 16 13 15 15 15 15 17 17 13 18 19 16 17 10 11 13 13 13 9 12 15 13 12 15 32 35
93 92 89 89 85 80 80 83 87 84 81 76 62 52 37 29 19 14 13 16 15 16 15 14 18 20 16 21 21 18 16 15 12 11 14 15 14 13 12 14 14 13 16 31 34
92 90 92 91 86 85 85 85 80 79 69 43 37 35 29 19 12 14 13 14 16 19 20 25 23 21 19 21 23 15 17 15 12 13 12 13 14 11 10 10 14 17 24 32 35
90 89 91 89 86 85 84 76 68 67 46 35 28 23 14 13 19 20 18 16 16 20 26 23 25 25 19 20 16 12 14 14 11 9 15 17 15 14 13 10 18 24 27 33 38
92 91 90 88 88 85 79 68 42 44 53 34 32 24 18 19 28 21 20 23 22 26 22 22 30 19 15 14 16 16 18 18 13 9 11 15 17 15 13 11 18 22 34 36 38
93 91 90 87 87 80 60 52 33 40 42 32 22 22 24 16 22 18 24 21 24 28 22 23 19 17 17 14 17 19 21 18 15 12 14 19 20 17 13 14 28 30 29 34 37
94 93 91 91 83 55 54 34 36 42 61 43 22 18 14 16 21 14 20 23 24 25 21 19 14 16 17 17 15 24 15 14 15 20 24 14 28 16 22 26 33 36 38 38 39
94 92 91 78 69 59 46 41 43 54 94 26 25 16 17 19 14 17 12 26 27 24 21 21 16 18 21 17 14 20 16 19 18 24 24 20 22 18 14 34 36 35 37 40 43
95 92 91 81 60 50 44 46 50 86 88 32 27 30 28 20 20 14 14 20 21 24 20 18 11 14 17 15 15 14 24 24 24 25 44 25 24 21 16 21 32 31 35 42 50
95 92 90 61 65 52 58 77 94 93 30 27 30 30 30 31 28 23 20 20 31 40 35 22 19 16 18 22 18 21 34 48 43 44 43 21 24 24 20 23 25 33 40 47 51
95 94 89 67 51 67 83 96 97 36 34 17 20 27 34 29 30 26 32 21 24 25 26 32 34 22 20 23 26 29 32 38 42 44 31 17 32 24 23 25 28 31 40 51 59
88 98 97 90 63 79 95 99 61 36 22 27 20 28 34 28 26 25 33 33 21 25 33 29 27 17 19 20 21 29 36 24 37 37 48 29 21 28 33 39 37 39 48 61 66
96 97 96 79 73 90 99 91 58 32 26 24 34 28 35 33 29 29 35 30 27 21 25 24 35 20 18 20 22 23 23 50 54 54 53 30 27 38 50 57 46 50 60 66 64
89 99 94 80 84 98 99 83 60 37 26 32 31 26 25 30 30 31 34 27 25 22 22 25 36 30 27 32 29 28 30 33 38 44 45 45 55 45 56 48 49 49 52 66 65
97 99 84 93 100 100 97 69 51 41 37 41 39 39 34 28 30 36 33 29 23 24 30 28 35 39 29 24 20 20 26 31 67 58 62 62 56 40 46 39 38 38 41 56 57
100 99 87 97 99 99 65 52 49 41 36 63 53 38 36 37 37 40 46 51 42 31 38 36 56 56 36 32 25 28 25 27 38 47 60 67 50 25 24 28 30 33 37 56 59
100 99 99 99 97 94 68 58 54 40 38 56 55 48 38 44 38 38 69 60 45 49 64 56 46 49 49 35 36 49 35 38 46 72 64 55 48 36 35 41 48 45 46 55 59
100 98 77 97 99 97 62 49 53 52 40 41 82 60 57 55 39 41 49 61 46 56 42 55 60 42 34 27 28 46 55 61 70 73 85 62 50 38 38 50 54 50 39 54 56
100 100 89 83 98 90 69 59 49 44 41 51 72 51 46 56 73 81 66 65 48 41 46 48 62 50 53 39 41 52 78 61 55 53 55 53 45 35 31 29 52 50 44 53 54
99 89 96 83 79 95 83 69 51 42 39 34 48 53 53 46 47 54 66 68 57 57 60 59 66 60 66 46 56 71 62 49 41 29 28 36 30 22 23 24 27 47 45 52 53
Wind_Speed
9 8 7 5 4 3 5 6 7 9 11 13 14 15 17 18 22 20 17 6 3 7 10 12 14 13 13 12 8 10 7 13 14 8 12 5 4 7 4 4 4 2 14 11 5
10 8 7 6 4 3 3 4 6 9 10 13 14 15 17 17 20 21 3 4 5 7 8 10 10 11 9 10 6 9 10 6 11 11 9 8 2 7 2 6 3 6 13 8 5
10 9 9 7 4 4 3 3 5 8 10 12 13 15 17 16 14 6 2 5 6 7 11 13 11 10 13 14 10 9 13 6 6 10 9 5 3 2 3 5 3 4 7 5 5
11 10 8 7 5 4 3 4 5 7 9 12 14 16 17 7 8 6 6 2 6 10 15 10 9 12 12 13 13 8 12 5 3 5 3 4 6 6 6 7 9 5 6 3 12
11 9 7 7 5 4 4 4 5 7 9 11 11 14 11 9 15 7 4 6 7 12 12 9 10 10 14 12 12 9 14 4 5 3 4 6 9 9 10 3 6 4 3 10 13
11 8 7 5 5 4 5 5 5 7 8 10 10 13 9 15 5 7 7 7 10 11 12 10 10 8 12 14 9 5 9 10 7 9 8 10 11 12 9 9 6 7 3 15 13
9 6 4 1 2 3 5 6 6 7 9 9 9 8 11 22 14 6 4 9 11 10 12 10 9 9 3 12 14 7 11 13 15 13 9 3 13 19 10 9 9 7 10 15 11
7 2 1 1 1 3 5 7 7 9 10 10 9 8 10 13 9 15 11 11 9 7 9 13 5 13 16 12 5 10 14 13 14 18 8 6 11 8 14 12 11 5 7 15 11
10 8 5 3 3 4 7 8 8 10 11 9 7 9 12 2 10 13 12 13 11 10 8 8 7 14 10 13 12 14 12 19 10 15 13 13 7 16 15 12 9 6 1 13 10
13 13 12 10 8 5 7 8 7 6 9 10 10 8 11 11 4 5 10 14 12 10 9 10 8 11 14 13 14 15 20 16 17 16 9 11 12 13 9 13 11 4 6 10 8
11 11 10 9 10 6 3 5 5 7 12 11 11 8 3 6 3 8 10 13 13 13 16 14 12 17 20 20 20 18 12 13 10 10 15 14 13 14 16 16 10 8 8 8 7
12 12 9 8 6 7 4 5 5 9 10 19 25 24 20 1 8 13 13 14 18 18 18 17 19 20 20 21 21 21 17 15 15 14 14 8 13 16 18 15 10 9 10 7 8
12 12 11 9 5 3 10 8 7 7 9 18 25 25 21 22 17 12 18 20 19 20 20 21 13 22 22 21 13 15 15 15 17 14 5 8 17 20 19 12 11 4 7 8 5
14 13 12 10 3 9 13 13 2 3 6 11 15 17 25 19 16 27 19 19 14 20 22 24 21 12 12 19 14 18 17 17 17 12 13 13 12 12 10 14 13 12 11 10 9
17 17 17 17 1 10 7 8 3 3 6 4 13 7 8 21 4 18 25 23 21 20 15 17 18 19 20 19 17 16 9 7 6 11 15 16 13 13 19 17 18 17 15 11 9
18 18 17 12 8 5 6 9 6 5 12 7 9 11 12 24 20 10 26 20 16 21 22 21 15 16 18 19 18 12 5 6 8 10 13 15 15 11 12 15 21 20 16 14 10
18 21 19 11 11 9 9 6 7 8 5 11 11 15 19 20 21 19 18 26 17 17 24 21 23 14 10 14 14 12 8 5 9 9 11 13 16 13 3 13 17 20 17 15 13
7 21 18 12 10 10 10 9 12 16 22 6 17 19 21 19 21 25 18 21 24 23 10 19 20 23 17 20 15 18 18 7 9 10 13 8 7 5 9 14 14 18 17 16 13
5 7 7 11 11 8 9 14 11 11 14 17 16 17 20 22 15 23 25 22 24 27 19 14 25 15 23 19 20 18 22 14 14 11 7 8 9 9 11 11 11 13 16 15 13
3 3 10 16 12 7 12 16 16 23 21 13 21 16 20 21 21 24 17 18 25 25 24 14 15 23 23 17 23 19 14 13 6 6 10 12 14 9 16 13 12 12 14 14 13
1 1 5 15 11 8 10 12 23 25 20 12 20 21 17 16 19 18 16 18 23 23 23 19 12 8 17 15 19 12 15 9 9 10 4 7 4 3 10 13 14 13 13 14 14
3 3 4 10 12 5 14 25 28 22 22 9 10 15 17 17 13 18 20 12 9 15 26 21 7 11 21 15 16 16 18 15 7 10 7 9 14 13 13 13 13 13 15 16 14
2 3 4 12 12 7 23 29 25 22 21 3 8 13 11 10 14 14 2 2 13 6 9 15 8 9 15 16 18 18 16 15 16 10 16 13 16 8 2 11 13 12 15 17 16
0 5 3 6 9 12 22 25 25 27 24 16 13 17 15 12 15 3 8 6 7 6 10 5 5 11 10 10 2 6 13 13 11 13 17 18 18 16 9 3 9 9 5 16 15
3 6 4 4 8 14 23 18 26 24 24 10 7 18 12 10 15 13 11 4 3 0 4 5 5 9 13 14 11 6 8 11 15 15 15 18 17 18 15 12 12 15 15 18 16
4 4 5 8 6 19 22 24 25 25 22 19 12 10 14 10 3 10 13 14 11 7 2 3 3 8 14 14 14 11 11 22 22 21 16 21 19 14 14 11 17 17 15 17 16
3 5 7 6 10 16 18 25 26 24 23 25 26 18 14 13 5 5 9 9 15 11 9 6 6 8 16 15 15 15 27 23 25 22 16 19 16 15 16 17 14 16 12 17 16
Wind_Direction
242 245 252 248 259 305 332 340 346 339 335 328 326 322 318 314 307 296 273 289 7 355 327 282 275 266 252 257 245 263 264 251 283 157 99 118 170 122 59 276 114 58 68 63 16
225 225 225 221 243 271 312 332 339 332 334 329 327 321 316 319 303 287 31 75 22 14 279 257 266 241 249 253 225 226 219 320 10 33 90 120 293 67 342 168 201 168 98 69 33
215 203 200 207 215 258 289 321 331 326 328 328 323 318 314 318 296 75 109 60 347 301 259 283 286 284 255 236 216 238 247 43 94 23 9 351 134 252 248 267 292 48 18 49 52
201 192 197 194 199 225 268 299 312 315 321 327 323 318 313 291 292 90 153 136 289 286 277 251 246 247 253 239 228 257 269 289 335 101 309 277 309 301 299 297 47 63 58 265 60
174 174 209 191 200 222 255 285 305 308 318 320 322 325 317 256 259 122 174 216 263 267 267 255 255 249 256 249 249 228 263 227 244 201 241 272 265 275 265 118 80 89 202 68 59
155 160 183 209 204 227 253 273 290 296 311 313 315 319 264 272 281 151 228 233 246 256 269 267 266 310 296 283 251 302 312 291 215 234 233 242 254 240 229 132 160 180 148 82 67
121 136 188 192 256 246 264 275 281 285 291 304 307 293 266 252 289 285 218 266 252 249 266 260 291 285 271 264 255 269 262 250 238 233 229 141 251 239 192 154 193 202 123 97 79
75 53 262 245 251 262 269 273 283 281 286 286 291 279 257 254 284 247 230 240 255 251 262 292 299 274 267 274 263 254 243 253 249 192 148 179 283 159 138 173 207 222 124 110 89
169 179 193 230 246 270 270 273 270 268 260 270 259 208 268 135 222 244 234 231 211 236 243 261 259 244 233 242 249 226 253 221 211 170 151 195 275 134 166 189 220 244 237 111 111
185 195 180 188 195 223 268 275 295 251 230 227 250 289 234 240 218 223 228 224 216 215 222 224 228 235 226 218 223 224 218 246 263 173 194 203 232 263 252 206 200 161 123 119 120
200 213 206 192 180 197 226 265 244 217 234 217 193 233 204 193 126 225 204 207 220 201 216 202 213 224 229 224 240 265 292 284 266 172 186 213 245 271 272 259 150 183 173 133 123
196 203 204 200 202 196 246 221 35 344 288 232 251 257 264 278 282 218 173 201 201 213 212 230 228 230 235 239 227 242 255 259 265 271 271 284 270 267 264 253 167 182 136 155 157
198 198 187 175 167 235 247 232 287 358 281 264 244 237 231 239 236 244 185 210 202 216 211 222 232 223 245 242 229 242 250 254 262 269 229 248 261 261 254 223 124 144 126 133 162
197 196 165 132 130 229 223 233 87 268 281 266 214 242 221 215 248 234 192 207 226 218 222 224 231 246 237 240 228 243 242 253 250 270 262 264 277 277 134 161 162 167 159 169 161
192 186 167 170 295 188 251 172 180 260 272 242 185 114 213 196 127 206 217 211 227 218 222 223 219 232 230 241 233 250 297 262 247 249 268 255 266 248 239 180 183 177 173 158 144
190 181 174 207 267 256 118 152 181 152 238 244 133 186 186 206 225 286 196 206 227 250 234 238 248 231 249 222 250 255 170 243 249 257 252 247 247 261 250 204 174 181 164 151 143
207 184 179 200 207 217 147 117 193 204 216 229 179 191 203 198 221 232 201 204 207 213 232 241 231 232 242 232 219 194 188 213 222 216 245 239 237 229 133 131 172 148 144 147 154
292 186 196 219 221 171 176 183 220 216 216 268 200 192 206 199 212 214 207 214 206 234 246 220 228 217 209 225 200 215 201 202 220 228 252 256 230 250 89 93 113 138 145 137 145
286 218 189 203 225 187 189 208 214 231 242 235 229 220 209 216 199 203 210 216 221 218 221 210 234 217 207 205 215 201 218 242 271 285 283 262 262 153 125 123 131 137 137 144 150
5 7 212 189 203 209 207 212 239 242 280 314 244 224 225 206 199 195 198 225 221 216 226 245 268 220 190 195 226 248 202 213 231 234 232 247 253 272 165 162 160 163 152 152 161
334 17 306 191 188 208 213 217 226 245 256 275 283 267 247 248 213 217 207 228 208 210 204 230 254 190 163 202 199 210 234 205 207 235 267 280 276 70 149 170 181 178 173 162 171
116 217 218 200 206 190 207 214 223 227 261 316 287 292 287 239 246 235 229 222 213 198 195 214 239 223 210 189 229 214 213 218 218 233 240 255 259 137 161 182 186 196 185 164 177
218 250 228 220 224 205 221 230 240 231 242 191 248 276 304 293 256 245 147 52 306 273 195 186 220 219 221 198 210 215 237 224 219 244 236 242 254 229 214 182 181 203 178 153 172
265 268 196 193 242 217 209 226 221 235 236 193 256 289 276 280 292 181 113 215 342 15 10 340 192 224 226 228 190 213 235 271 266 221 249 243 269 263 230 178 352 1 71 157 178
191 247 240 235 219 210 220 211 221 223 230 210 226 244 252 259 252 254 135 313 258 184 339 11 253 238 250 270 273 242 251 267 267 276 240 265 264 264 283 180 201 203 223 164 178
210 222 204 237 282 221 216 219 211 228 212 208 215 232 237 221 238 310 335 332 288 272 288 347 274 308 281 279 269 246 248 257 251 247 253 269 266 266 254 263 210 218 169 166 178
204 262 286 248 220 229 207 219 222 223 217 210 211 218 235 234 228 271 309 281 281 296 301 284 278 266 261 264 279 267 246 248 246 244 253 262 267 269 264 259 259 152 175 176 175